Location: San Martino di Castrozza
(46.2667°N, 11.8000°E)
Time: 15:45:16
(UTC+00:00)

ADEOS II - Pass Details

Date: 23 April 2021
Orbit: 798 x 801 km, 98.6° (Epoch: 13 May)

Event Time Altitude Azimuth Distance (km) Brightness Sun altitude
Rises 02:12:46 0° 8° (N) 3,319 6.1 -18.5°
Reaches altitude 10° 02:15:12 10° 2° (N) 2,384 5.2 -18.1°
Maximum altitude 02:20:09 43° 292° (WNW) 1,108 2.6 -17.5°
Enters shadow 02:22:19 29° 242° (WSW) 1,441 2.8 -17.2°
